Time,TemperatureF,DewpointF,PressureIn,WindDirection,WindDirectionDegrees,WindSpeedMPH,WindSpeedGustMPH,Humidity,HourlyPrecipIn,Conditions,Clouds,dailyrainin,SoftwareType,DateUTC
2014-04-20 00:04:00,46.6,36.6,29.92,NE,45,3.1,6.9,68,0.00,,,0.00,pywws,2014-04-19 23:04:00,
2014-04-20 00:09:00,46.4,36.4,29.92,East,90,4.5,8.3,68,0.00,,,0.00,pywws,2014-04-19 23:09:00,
2014-04-20 00:15:00,46.2,36.2,29.92,East,90,1.6,4.5,68,0.00,,,0.00,pywws,2014-04-19 23:15:00,
2014-04-20 00:21:00,46.0,36.4,29.92,SE,135,3.1,6.0,69,0.00,,,0.00,pywws,2014-04-19 23:21:00,
2014-04-20 00:26:00,45.9,36.3,29.92,East,90,3.8,5.4,69,0.00,,,0.00,pywws,2014-04-19 23:26:00,
2014-04-20 00:32:00,45.9,36.3,29.92,East,90,2.2,3.8,69,0.00,,,0.00,pywws,2014-04-19 23:32:00,
2014-04-20 00:37:00,45.9,36.6,29.93,East,90,3.1,4.5,70,0.00,,,0.00,pywws,2014-04-19 23:37:00,
2014-04-20 00:43:00,45.9,36.6,29.92,East,90,0.7,3.1,70,0.00,,,0.00,pywws,2014-04-19 23:43:00,
2014-04-20 00:49:00,45.7,36.1,29.92,NE,45,0.0,1.6,69,0.00,,,0.00,pywws,2014-04-19 23:49:00,
2014-04-20 00:54:00,45.5,35.9,29.92,SW,225,0.7,1.6,69,0.00,,,0.00,pywws,2014-04-19 23:54:00,
2014-04-20 01:00:00,45.1,35.6,29.92,South,180,0.7,1.6,69,0.00,,,0.00,pywws,2014-04-20 00:00:00,
2014-04-20 01:05:00,45.0,35.4,29.92,SE,135,0.7,1.6,69,0.00,,,0.00,pywws,2014-04-20 00:05:00,
2014-04-20 01:11:00,44.4,35.3,29.92,East,90,0.0,0.7,70,0.00,,,0.00,pywws,2014-04-20 00:11:00,
2014-04-20 01:17:00,44.2,35.4,29.92,East,90,0.7,1.6,71,0.00,,,0.00,pywws,2014-04-20 00:17:00,
2014-04-20 01:30:00,43.0,34.6,29.93,NE,45,0.0,0.7,72,0.00,,,0.00,pywws,2014-04-20 00:30:00,
2014-04-20 01:36:00,42.4,34.4,29.92,NE,45,0.0,0.7,73,0.00,,,0.00,pywws,2014-04-20 00:36:00,
2014-04-20 01:46:00,41.5,33.9,29.92,NE,45,0.7,1.6,74,0.00,,,0.00,pywws,2014-04-20 00:46:00,
2014-04-20 01:51:00,41.4,34.0,29.92,North,0,0.7,1.6,75,0.00,,,0.00,pywws,2014-04-20 00:51:00,
2014-04-20 01:57:00,41.2,33.9,29.92,NE,45,0.7,1.6,75,0.00,,,0.00,pywws,2014-04-20 00:57:00,
2014-04-20 02:02:00,40.8,33.9,29.92,NE,45,0.0,0.0,76,0.00,,,0.00,pywws,2014-04-20 01:02:00,
2014-04-20 02:08:00,40.3,33.0,29.92,East,90,0.7,1.6,75,0.00,,,0.00,pywws,2014-04-20 01:08:00,
2014-04-20 02:13:00,40.1,33.2,29.91,East,90,0.0,0.7,76,0.00,,,0.00,pywws,2014-04-20 01:13:00,
2014-04-20 02:19:00,39.9,32.6,29.91,East,90,0.0,0.0,75,0.00,,,0.00,pywws,2014-04-20 01:19:00,
2014-04-20 02:30:00,39.4,32.5,29.91,East,90,0.7,1.6,76,0.00,,,0.00,pywws,2014-04-20 01:30:00,
2014-04-20 02:35:00,39.6,32.6,29.91,East,90,0.7,1.6,76,0.00,,,0.00,pywws,2014-04-20 01:35:00,
2014-04-20 02:45:00,39.6,33.0,29.91,NE,45,0.0,1.6,77,0.00,,,0.00,pywws,2014-04-20 01:45:00,
2014-04-20 02:51:00,39.2,32.9,29.90,East,90,0.0,0.7,78,0.00,,,0.00,pywws,2014-04-20 01:51:00,
2014-04-20 02:57:00,39.0,33.1,29.91,North,0,1.6,2.2,79,0.00,,,0.00,pywws,2014-04-20 01:57:00,
2014-04-20 03:05:00,38.8,33.2,29.91,North,0,0.7,1.6,80,0.00,,,0.00,pywws,2014-04-20 02:05:00,
2014-04-20 03:15:00,38.8,33.5,29.91,NE,45,0.7,2.2,81,0.00,,,0.00,pywws,2014-04-20 02:15:00,
2014-04-20 03:21:00,38.7,33.3,29.91,North,0,0.7,1.6,81,0.00,,,0.00,pywws,2014-04-20 02:21:00,
2014-04-20 03:30:00,38.8,33.8,29.91,NE,45,2.2,4.5,82,0.00,,,0.00,pywws,2014-04-20 02:30:00,
2014-04-20 03:36:00,39.0,34.0,29.91,NE,45,1.6,3.1,82,0.00,,,0.00,pywws,2014-04-20 02:36:00,
2014-04-20 03:42:00,38.8,33.8,29.91,East,90,2.2,3.8,82,0.00,,,0.00,pywws,2014-04-20 02:42:00,
2014-04-20 03:48:00,38.7,33.6,29.91,North,0,1.6,3.8,82,0.00,,,0.00,pywws,2014-04-20 02:48:00,
2014-04-20 03:55:00,38.8,33.8,29.91,East,90,1.6,3.1,82,0.00,,,0.00,pywws,2014-04-20 02:55:00,
2014-04-20 04:01:00,38.5,33.5,29.90,NE,45,1.6,2.2,82,0.00,,,0.00,pywws,2014-04-20 03:01:00,
2014-04-20 04:06:00,38.3,33.3,29.91,North,0,0.7,1.6,82,0.00,,,0.00,pywws,2014-04-20 03:06:00,
2014-04-20 04:12:00,38.1,33.1,29.91,East,90,0.7,1.6,82,0.00,,,0.00,pywws,2014-04-20 03:12:00,
2014-04-20 04:17:00,38.1,33.1,29.91,SE,135,1.6,3.1,82,0.00,,,0.00,pywws,2014-04-20 03:17:00,
2014-04-20 04:23:00,37.9,32.9,29.90,East,90,0.7,1.6,82,0.00,,,0.00,pywws,2014-04-20 03:23:00,
2014-04-20 04:29:00,37.8,32.8,29.90,East,90,2.2,3.8,82,0.00,,,0.00,pywws,2014-04-20 03:29:00,
2014-04-20 04:34:00,37.6,32.6,29.90,East,90,1.6,2.2,82,0.00,,,0.00,pywws,2014-04-20 03:34:00,
2014-04-20 04:40:00,37.6,32.6,29.90,East,90,2.2,3.1,82,0.00,,,0.00,pywws,2014-04-20 03:40:00,
2014-04-20 04:45:00,37.2,31.0,29.90,East,90,0.7,2.2,78,0.00,,,0.00,pywws,2014-04-20 03:45:00,
2014-04-20 04:51:00,37.0,30.8,29.90,North,0,0.7,1.6,78,0.00,,,0.00,pywws,2014-04-20 03:51:00,
2014-04-20 04:57:00,37.0,30.8,29.90,East,90,0.7,2.2,78,0.00,,,0.00,pywws,2014-04-20 03:57:00,
2014-04-20 05:01:00,37.2,31.3,29.89,East,90,0.0,0.7,79,0.00,,,0.00,pywws,2014-04-20 04:01:00,
2014-04-20 05:02:00,37.2,31.0,29.89,East,90,0.0,0.7,78,0.00,,,0.00,pywws,2014-04-20 04:02:00,
2014-04-20 05:04:00,37.0,30.8,29.90,East,90,0.0,0.7,78,0.00,,,0.00,pywws,2014-04-20 04:04:00,
2014-04-20 05:07:00,36.9,30.7,29.89,East,90,0.0,0.0,78,0.00,,,0.00,pywws,2014-04-20 04:07:00,
2014-04-20 05:08:00,36.9,30.7,29.89,East,90,0.0,0.0,78,0.00,,,0.00,pywws,2014-04-20 04:08:00,
2014-04-20 05:11:00,36.7,30.5,29.89,NE,45,0.0,1.6,78,0.00,,,0.00,pywws,2014-04-20 04:11:00,
2014-04-20 05:17:00,36.1,30.0,29.89,NE,45,0.7,1.6,78,0.00,,,0.00,pywws,2014-04-20 04:17:00,
2014-04-20 05:23:00,36.0,29.8,29.89,NE,45,0.0,0.7,78,0.00,,,0.00,pywws,2014-04-20 04:23:00,
2014-04-20 05:29:00,36.0,29.8,29.89,East,90,0.0,0.7,78,0.00,,,0.00,pywws,2014-04-20 04:29:00,
2014-04-20 05:34:00,36.0,29.8,29.89,East,90,0.7,2.2,78,0.00,,,0.00,pywws,2014-04-20 04:34:00,
2014-04-20 05:40:00,36.1,30.0,29.89,East,90,0.0,1.6,78,0.00,,,0.00,pywws,2014-04-20 04:40:00,
2014-04-20 05:46:00,36.0,29.8,29.89,NE,45,0.7,2.2,78,0.00,,,0.00,pywws,2014-04-20 04:46:00,
2014-04-20 05:51:00,35.8,29.6,29.89,NE,45,0.7,1.6,78,0.00,,,0.00,pywws,2014-04-20 04:51:00,
2014-04-20 05:57:00,35.4,29.3,29.89,NE,45,0.7,1.6,78,0.00,,,0.00,pywws,2014-04-20 04:57:00,
2014-04-20 06:02:00,35.4,29.3,29.89,SE,135,0.7,2.2,78,0.00,,,0.00,pywws,2014-04-20 05:02:00,
2014-04-20 06:08:00,35.8,29.3,29.89,SE,135,0.0,0.7,77,0.00,,,0.00,pywws,2014-04-20 05:08:00,
2014-04-20 06:15:00,35.8,29.3,29.89,East,90,0.7,1.6,77,0.00,,,0.00,pywws,2014-04-20 05:15:00,
2014-04-20 06:21:00,35.8,29.3,29.90,North,0,0.0,0.7,77,0.00,,,0.00,pywws,2014-04-20 05:21:00,
2014-04-20 06:27:00,35.6,28.8,29.90,East,90,0.0,0.7,76,0.00,,,0.00,pywws,2014-04-20 05:27:00,
2014-04-20 06:33:00,35.6,28.8,29.89,East,90,0.7,1.6,76,0.00,,,0.00,pywws,2014-04-20 05:33:00,
2014-04-20 06:45:00,35.6,28.8,29.90,East,90,0.7,1.6,76,0.00,,,0.00,pywws,2014-04-20 05:45:00,
2014-04-20 06:51:00,36.1,29.3,29.89,East,90,1.6,3.1,76,0.00,,,0.00,pywws,2014-04-20 05:51:00,
2014-04-20 06:57:00,36.3,29.5,29.89,East,90,1.6,2.2,76,0.00,,,0.00,pywws,2014-04-20 05:57:00,
2014-04-20 07:02:00,36.5,29.7,29.89,East,90,2.2,3.8,76,0.00,,,0.00,pywws,2014-04-20 06:02:00,
2014-04-20 07:08:00,36.5,29.3,29.89,East,90,2.2,3.1,75,0.00,,,0.00,pywws,2014-04-20 06:08:00,
2014-04-20 07:13:00,36.5,29.3,29.88,East,90,1.6,3.1,75,0.00,,,0.00,pywws,2014-04-20 06:13:00,
2014-04-20 07:20:00,37.0,29.9,29.89,East,90,2.2,3.8,75,0.00,,,0.00,pywws,2014-04-20 06:20:00,
2014-04-20 07:30:00,38.7,32.7,29.88,East,90,3.1,3.8,79,0.00,,,0.00,pywws,2014-04-20 06:30:00,
2014-04-20 07:36:00,39.0,32.4,29.88,NE,45,1.6,3.1,77,0.00,,,0.00,pywws,2014-04-20 06:36:00,
2014-04-20 07:41:00,39.7,32.8,29.88,East,90,1.6,2.2,76,0.00,,,0.00,pywws,2014-04-20 06:41:00,
2014-04-20 07:47:00,40.8,33.9,29.88,North,0,0.0,1.6,76,0.00,,,0.00,pywws,2014-04-20 06:47:00,
2014-04-20 07:53:00,42.1,34.7,29.88,East,90,0.7,2.2,75,0.00,,,0.00,pywws,2014-04-20 06:53:00,
2014-04-20 07:58:00,42.6,34.6,29.88,NE,45,1.6,2.2,73,0.00,,,0.00,pywws,2014-04-20 06:58:00,
2014-04-20 08:04:00,43.0,34.6,29.88,East,90,0.7,2.2,72,0.00,,,0.00,pywws,2014-04-20 07:04:00,
2014-04-20 08:09:00,43.0,34.2,29.88,North,0,1.6,3.1,71,0.00,,,0.00,pywws,2014-04-20 07:09:00,
2014-04-20 08:15:00,43.7,35.3,29.88,East,90,2.2,3.8,72,0.00,,,0.00,pywws,2014-04-20 07:15:00,
2014-04-20 08:21:00,43.9,35.4,29.88,East,90,4.5,6.0,72,0.00,,,0.00,pywws,2014-04-20 07:21:00,
2014-04-20 08:26:00,44.1,36.0,29.88,North,0,3.1,4.5,73,0.00,,,0.00,pywws,2014-04-20 07:26:00,
2014-04-20 08:32:00,44.8,36.0,29.88,East,90,3.8,5.4,71,0.00,,,0.00,pywws,2014-04-20 07:32:00,
2014-04-20 08:37:00,45.7,36.8,29.88,East,90,2.2,4.5,71,0.00,,,0.00,pywws,2014-04-20 07:37:00,
2014-04-20 08:43:00,45.9,36.6,29.88,North,0,2.2,3.8,70,0.00,,,0.00,pywws,2014-04-20 07:43:00,
2014-04-20 08:49:00,46.0,36.8,29.88,NE,45,2.2,3.8,70,0.00,,,0.00,pywws,2014-04-20 07:49:00,
2014-04-20 08:54:00,46.2,37.3,29.88,NE,45,3.8,6.0,71,0.00,,,0.00,pywws,2014-04-20 07:54:00,
2014-04-20 09:00:00,46.9,37.7,29.88,East,90,3.8,5.4,70,0.00,,,0.00,pywws,2014-04-20 08:00:00,
2014-04-20 09:05:00,46.9,37.7,29.88,NE,45,2.2,3.8,70,0.00,,,0.00,pywws,2014-04-20 08:05:00,
2014-04-20 09:11:00,47.8,38.5,29.88,SE,135,3.1,5.4,70,0.00,,,0.00,pywws,2014-04-20 08:11:00,
2014-04-20 09:17:00,48.6,38.5,29.88,East,90,3.1,4.5,68,0.00,,,0.00,pywws,2014-04-20 08:17:00,
2014-04-20 09:22:00,48.9,38.8,29.88,NE,45,3.8,6.0,68,0.00,,,0.00,pywws,2014-04-20 08:22:00,
2014-04-20 09:28:00,49.1,38.2,29.88,NE,45,6.0,7.6,66,0.00,,,0.00,pywws,2014-04-20 08:28:00,
2014-04-20 09:33:00,48.7,37.5,29.87,NE,45,6.0,8.3,65,0.00,,,0.00,pywws,2014-04-20 08:33:00,
2014-04-20 09:45:00,49.1,38.2,29.87,NNE,22,3.8,5.4,66,0.00,,,0.00,pywws,2014-04-20 08:45:00,
2014-04-20 09:51:00,51.3,39.1,29.87,North,0,6.0,7.6,63,0.00,,,0.00,pywws,2014-04-20 08:51:00,
2014-04-20 09:57:00,50.9,38.4,29.87,North,0,5.4,8.3,62,0.00,,,0.00,pywws,2014-04-20 08:57:00,
2014-04-20 10:02:00,50.7,37.8,29.87,NE,45,6.9,9.8,61,0.00,,,0.00,pywws,2014-04-20 09:02:00,
2014-04-20 10:08:00,51.1,37.7,29.87,NE,45,6.9,9.2,60,0.00,,,0.00,pywws,2014-04-20 09:08:00,
2014-04-20 10:13:00,51.1,37.3,29.86,ENE,68,5.4,6.9,59,0.00,,,0.00,pywws,2014-04-20 09:13:00,
2014-04-20 10:19:00,51.6,38.2,29.86,NE,45,3.8,4.5,60,0.00,,,0.00,pywws,2014-04-20 09:19:00,
2014-04-20 10:25:00,52.0,36.8,29.86,North,0,8.3,12.1,56,0.00,,,0.00,pywws,2014-04-20 09:25:00,
2014-04-20 10:30:00,52.0,35.9,29.86,North,0,7.6,9.8,54,0.00,,,0.00,pywws,2014-04-20 09:30:00,
2014-04-20 10:36:00,52.3,36.2,29.86,NE,45,6.0,8.3,54,0.00,,,0.00,pywws,2014-04-20 09:36:00,
2014-04-20 10:41:00,53.2,38.0,29.86,NE,45,7.6,9.2,56,0.00,,,0.00,pywws,2014-04-20 09:41:00,
2014-04-20 10:47:00,53.1,37.3,29.85,NE,45,8.3,11.4,55,0.00,,,0.00,pywws,2014-04-20 09:47:00,
2014-04-20 10:53:00,52.9,36.7,29.86,NNE,22,9.2,13.0,54,0.00,,,0.00,pywws,2014-04-20 09:53:00,
2014-04-20 10:58:00,53.4,37.2,29.85,North,0,9.8,13.6,54,0.00,,,0.00,pywws,2014-04-20 09:58:00,
2014-04-20 11:04:00,53.1,36.9,29.85,NE,45,11.4,13.6,54,0.00,,,0.00,pywws,2014-04-20 10:04:00,
2014-04-20 11:09:00,53.1,36.4,29.85,NE,45,7.6,9.2,53,0.00,,,0.00,pywws,2014-04-20 10:09:00,
2014-04-20 11:15:00,54.1,36.9,29.85,East,90,7.6,9.8,52,0.00,,,0.00,pywws,2014-04-20 10:15:00,
2014-04-20 11:21:00,53.8,36.1,29.85,East,90,7.6,10.7,51,0.00,,,0.00,pywws,2014-04-20 10:21:00,
2014-04-20 11:26:00,54.1,36.9,29.84,North,0,9.8,13.0,52,0.00,,,0.00,pywws,2014-04-20 10:26:00,
2014-04-20 11:32:00,54.5,37.2,29.85,NE,45,7.6,10.7,52,0.00,,,0.00,pywws,2014-04-20 10:32:00,
2014-04-20 11:37:00,54.9,38.1,29.84,NE,45,9.2,11.4,53,0.00,,,0.00,pywws,2014-04-20 10:37:00,
2014-04-20 11:43:00,54.5,37.2,29.84,NE,45,9.2,12.1,52,0.00,,,0.00,pywws,2014-04-20 10:43:00,
2014-04-20 11:47:00,54.3,37.1,29.84,North,0,8.3,10.7,52,0.00,,,0.00,pywws,2014-04-20 10:47:00,
2014-04-20 11:53:00,55.6,37.7,29.83,North,0,6.0,8.3,51,0.00,,,0.00,pywws,2014-04-20 10:53:00,
2014-04-20 11:58:00,55.4,38.1,29.84,NE,45,10.7,13.0,52,0.00,,,0.00,pywws,2014-04-20 10:58:00,
2014-04-20 12:04:00,55.6,38.7,29.84,NE,45,9.2,10.7,53,0.00,,,0.00,pywws,2014-04-20 11:04:00,
2014-04-20 12:15:00,55.9,40.0,29.83,North,0,8.3,10.7,55,0.00,,,0.00,pywws,2014-04-20 11:15:00,
2014-04-20 12:21:00,56.3,39.9,29.83,NE,45,10.7,16.8,54,0.00,,,0.00,pywws,2014-04-20 11:21:00,
2014-04-20 12:26:00,56.5,39.6,29.83,North,0,10.7,13.0,53,0.00,,,0.00,pywws,2014-04-20 11:26:00,
2014-04-20 12:32:00,56.5,40.5,29.83,North,0,8.3,13.0,55,0.00,,,0.00,pywws,2014-04-20 11:32:00,
2014-04-20 12:37:00,57.2,40.7,29.83,North,0,9.8,13.6,54,0.00,,,0.00,pywws,2014-04-20 11:37:00,
2014-04-20 12:43:00,55.9,39.5,29.82,North,0,6.0,6.9,54,0.00,,,0.00,pywws,2014-04-20 11:43:00,
2014-04-20 12:49:00,56.1,40.2,29.83,North,0,7.6,10.7,55,0.00,,,0.00,pywws,2014-04-20 11:49:00,
2014-04-20 12:54:00,57.4,40.9,29.82,NNE,22,9.2,13.0,54,0.00,,,0.00,pywws,2014-04-20 11:54:00,
2014-04-20 13:00:00,56.8,40.8,29.82,North,0,8.3,11.4,55,0.00,,,0.00,pywws,2014-04-20 12:00:00,
2014-04-20 13:06:00,58.1,41.5,29.81,North,0,14.5,17.5,54,0.00,,,0.00,pywws,2014-04-20 12:06:00,
2014-04-20 13:11:00,56.3,40.3,29.81,WSW,248,13.0,17.5,55,0.00,,,0.00,pywws,2014-04-20 12:11:00,
2014-04-20 13:17:00,56.1,39.7,29.81,NE,45,9.2,13.0,54,0.00,,,0.00,pywws,2014-04-20 12:17:00,
2014-04-20 13:22:00,56.8,41.3,29.81,NW,315,5.4,8.3,56,0.00,,,0.00,pywws,2014-04-20 12:22:00,
2014-04-20 13:28:00,55.8,39.8,29.81,North,-999,9.2,11.4,55,0.00,,,0.00,pywws,2014-04-20 12:28:00,
2014-04-20 13:33:00,56.3,40.3,29.81,NE,45,6.9,9.2,55,0.00,,,0.00,pywws,2014-04-20 12:33:00,
2014-04-20 13:39:00,57.2,40.7,29.81,NE,45,10.7,13.6,54,0.00,,,0.00,pywws,2014-04-20 12:39:00,
2014-04-20 13:45:00,56.7,40.2,29.81,NE,45,9.2,12.1,54,0.00,,,0.00,pywws,2014-04-20 12:45:00,
2014-04-20 13:50:00,57.4,40.9,29.80,NE,45,5.4,7.6,54,0.00,,,0.00,pywws,2014-04-20 12:50:00,
2014-04-20 13:56:00,58.3,40.7,29.80,North,0,10.7,13.6,52,0.00,,,0.00,pywws,2014-04-20 12:56:00,
2014-04-20 14:01:00,58.3,41.2,29.80,NE,45,11.4,13.6,53,0.00,,,0.00,pywws,2014-04-20 13:01:00,
2014-04-20 14:07:00,58.3,40.2,29.80,NE,45,6.9,8.3,51,0.00,,,0.00,pywws,2014-04-20 13:07:00,
2014-04-20 14:13:00,58.8,40.7,29.80,North,0,8.3,13.0,51,0.00,,,0.00,pywws,2014-04-20 13:13:00,
2014-04-20 14:18:00,58.8,40.7,29.79,NE,45,6.9,11.4,51,0.00,,,0.00,pywws,2014-04-20 13:18:00,
2014-04-20 14:24:00,58.6,40.6,29.79,North,0,9.8,15.2,51,0.00,,,0.00,pywws,2014-04-20 13:24:00,
2014-04-20 14:29:00,57.9,39.4,29.79,NE,45,10.7,12.1,50,0.00,,,0.00,pywws,2014-04-20 13:29:00,
2014-04-20 14:35:00,58.8,41.7,29.79,North,0,11.4,15.2,53,0.00,,,0.00,pywws,2014-04-20 13:35:00,
2014-04-20 14:41:00,59.5,39.8,29.79,SW,225,12.1,15.2,48,0.00,,,0.00,pywws,2014-04-20 13:41:00,
2014-04-20 14:46:00,59.2,40.6,29.79,NE,45,8.3,11.4,50,0.00,,,0.00,pywws,2014-04-20 13:46:00,
2014-04-20 14:52:00,59.4,40.7,29.79,North,0,6.0,8.3,50,0.00,,,0.00,pywws,2014-04-20 13:52:00,
2014-04-20 14:57:00,59.2,40.6,29.79,North,0,8.3,9.8,50,0.00,,,0.00,pywws,2014-04-20 13:57:00,
2014-04-20 15:03:00,59.2,41.1,29.78,NE,45,9.2,13.0,51,0.00,,,0.00,pywws,2014-04-20 14:03:00,
2014-04-20 15:09:00,58.6,42.0,29.78,NNE,22,12.1,16.8,54,0.00,,,0.00,pywws,2014-04-20 14:09:00,
2014-04-20 15:14:00,59.2,40.6,29.78,North,0,10.7,13.6,50,0.00,,,0.00,pywws,2014-04-20 14:14:00,
2014-04-20 15:20:00,58.1,40.1,29.78,North,0,13.0,17.5,51,0.00,,,0.00,pywws,2014-04-20 14:20:00,
2014-04-20 15:25:00,58.8,41.7,29.78,NE,45,10.7,15.2,53,0.00,,,0.00,pywws,2014-04-20 14:25:00,
2014-04-20 15:31:00,58.3,41.7,29.78,NE,45,8.3,11.4,54,0.00,,,0.00,pywws,2014-04-20 14:31:00,
2014-04-20 15:36:00,58.8,41.2,29.77,NE,45,9.8,10.7,52,0.00,,,0.00,pywws,2014-04-20 14:36:00,
2014-04-20 15:41:00,58.8,40.7,29.77,NE,45,9.2,13.6,51,0.00,,,0.00,pywws,2014-04-20 14:41:00,
2014-04-20 15:47:00,58.8,40.2,29.77,North,0,7.6,13.0,50,0.00,,,0.00,pywws,2014-04-20 14:47:00,
2014-04-20 15:53:00,58.3,41.2,29.77,NNE,22,7.6,12.1,53,0.00,,,0.00,pywws,2014-04-20 14:53:00,
2014-04-20 15:58:00,58.8,42.2,29.76,North,0,11.4,13.6,54,0.00,,,0.00,pywws,2014-04-20 14:58:00,
2014-04-20 16:04:00,60.6,43.4,29.75,North,0,10.7,15.2,53,0.00,,,0.00,pywws,2014-04-20 15:04:00,
2014-04-20 16:09:00,60.3,43.1,29.75,North,0,6.9,10.7,53,0.00,,,0.00,pywws,2014-04-20 15:09:00,
2014-04-20 16:15:00,59.0,40.4,29.75,NE,45,9.2,12.1,50,0.00,,,0.00,pywws,2014-04-20 15:15:00,
2014-04-20 16:21:00,59.7,42.6,29.75,North,0,7.6,9.8,53,0.00,,,0.00,pywws,2014-04-20 15:21:00,
2014-04-20 16:26:00,59.9,40.2,29.75,North,0,12.1,15.9,48,0.00,,,0.00,pywws,2014-04-20 15:26:00,
2014-04-20 16:32:00,59.9,39.6,29.75,NE,45,9.8,15.9,47,0.00,,,0.00,pywws,2014-04-20 15:32:00,
2014-04-20 16:37:00,59.5,39.3,29.75,North,0,9.2,11.4,47,0.00,,,0.00,pywws,2014-04-20 15:37:00,
2014-04-20 16:43:00,58.6,40.6,29.74,NE,45,10.7,13.6,51,0.00,,,0.00,pywws,2014-04-20 15:43:00,
2014-04-20 16:49:00,59.2,42.1,29.74,North,0,10.7,14.5,53,0.00,,,0.00,pywws,2014-04-20 15:49:00,
2014-04-20 16:54:00,59.5,40.9,29.74,NE,45,13.0,15.9,50,0.00,,,0.00,pywws,2014-04-20 15:54:00,
2014-04-20 17:00:00,59.4,42.2,29.74,North,0,9.8,13.0,53,0.00,,,0.00,pywws,2014-04-20 16:00:00,
2014-04-20 17:05:00,58.8,42.2,29.74,NW,315,9.2,12.1,54,0.00,,,0.00,pywws,2014-04-20 16:05:00,
2014-04-20 17:11:00,59.0,42.4,29.73,East,90,9.2,12.1,54,0.00,,,0.00,pywws,2014-04-20 16:11:00,
2014-04-20 17:17:00,59.0,42.4,29.73,North,0,12.1,15.2,54,0.00,,,0.00,pywws,2014-04-20 16:17:00,
2014-04-20 17:22:00,59.0,41.9,29.73,East,90,9.8,13.6,53,0.00,,,0.00,pywws,2014-04-20 16:22:00,
2014-04-20 17:28:00,58.1,42.0,29.73,North,0,7.6,10.7,55,0.00,,,0.00,pywws,2014-04-20 16:28:00,
2014-04-20 17:33:00,59.4,42.7,29.73,NNE,22,9.2,12.1,54,0.00,,,0.00,pywws,2014-04-20 16:33:00,
2014-04-20 17:39:00,59.5,42.9,29.73,WSW,248,7.6,9.8,54,0.00,,,0.00,pywws,2014-04-20 16:39:00,